GW4807 Weather Reports


time (UTC)temp
C
wind
direction
speed
KPH
gust
KPH
rain 1hr
cm
rain 24hr
cm
rain mn
cm
humidity
%
barometer
mb
20260906155700 35 116 1.6 1.6 0.00 0.00 0.00 51 1010.0
20260906155155 35 99 4.8 9.7 0.00 0.00 0.00 51 1009.9
20260906154650 35 110 0.0 1.6 0.00 0.00 0.00 50 1009.7
20260906154145 35 104 1.6 1.6 0.00 0.00 0.00 52 1009.9
20260906153644 34 83 4.8 4.8 0.00 0.00 0.00 53 1009.8
20260906153138 34 123 0.0 0.0 0.00 0.00 0.00 54 1010.0
20260906152633 34 102 1.6 1.6 0.00 0.00 0.00 53 1009.7
20260906152127 33 107 1.6 1.6 0.00 0.00 0.00 55 1009.9
20260906151622 33 75 4.8 4.8 0.00 0.00 0.00 56 1009.8
20260906151118 32 115 0.0 1.6 0.00 0.00 0.00 59 1009.7
20260906150613 32 104 1.6 3.2 0.00 0.00 0.00 59 1009.8
20260906150109 32 158 3.2 3.2 0.00 0.00 0.00 62 1009.6
20260906145607 31 122 0.0 0.0 0.00 0.00 0.00 63 1009.6
20260906145102 31 95 1.6 1.6 0.00 0.00 0.00 65 1009.7
20260906144556 30 68 4.8 4.8 0.00 0.00 0.00 65 1009.9
20260906144052 30 122 0.0 0.0 0.00 0.00 0.00 68 1009.7
20260906143546 30 97 0.0 1.6 0.00 0.00 0.00 69 1009.8
20260906143043 29 96 3.2 3.2 0.00 0.00 0.00 69 1009.7
20260906142537 28 116 1.6 1.6 0.00 0.00 0.00 72 1009.8
20260906142033 28 129 0.0 0.0 0.00 0.00 0.00 73 1009.7
20260906141531 28 91 0.0 1.6 0.00 0.00 0.00 74 1009.9
20260906141027 27 132 1.6 3.2 0.00 0.00 0.00 74 1010.1
20260906140521 27 109 0.0 0.0 0.00 0.00 0.00 76 1009.9
20260906140020 27 128 0.0 0.0 0.00 0.00 0.00 77 1009.8
20260906135517 26 122 0.0 1.6 0.00 0.00 0.00 77 1009.9
20260906135013 26 118 1.6 3.2 0.00 0.00 0.00 77 1010.0
20260906134509 26 115 1.6 1.6 0.00 0.00 0.00 77 1010.0
20260906134008 27 119 0.0 1.6 0.00 0.00 0.00 76 1009.9
20260906133504 28 112 1.6 1.6 0.00 0.00 0.00 73 1009.7
20260906133000 27 116 0.0 0.0 0.00 0.00 0.00 77 1009.6
20260906132454 27 124 0.0 0.0 0.00 0.00 0.00 81 1009.5
20260906131950 26 125 0.0 1.6 0.00 0.00 0.00 84 1009.6
20260906131445 25 125 0.0 0.0 0.00 0.00 0.00 85 1009.7
20260906130941 25 130 1.6 1.6 0.00 0.00 0.00 86 1009.5
20260906130440 24 114 0.0 0.0 0.00 0.00 0.00 88 1009.6
20260906125935 23 123 0.0 0.0 0.00 0.00 0.00 96 1009.6
20260906125431 22 121 0.0 0.0 0.00 0.00 0.00 99 1009.6
20260906124926 22 117 0.0 0.0 0.00 0.00 0.00 99 1009.4
20260906124422 21 120 0.0 0.0 0.00 0.00 0.00 99 1009.4
20260906123922 21 121 0.0 0.0 0.00 0.00 0.00 99 1009.4
20260906123421 20 124 0.0 0.0 0.00 0.00 0.00 99 1009.5
20260906122915 20 120 0.0 0.0 0.00 0.00 0.00 99 1009.5
20260906122411 20 122 0.0 0.0 0.00 0.00 0.00 99 1009.5
20260906121908 20 124 0.0 0.0 0.00 0.00 0.00 99 1009.4
20260906121403 20 125 0.0 0.0 0.00 0.00 0.00 99 1009.2
20260906120859 20 125 0.0 0.0 0.00 0.00 0.00 99 1009.2
20260906120355 20 122 0.0 0.0 0.00 0.00 0.00 99 1009.0
20260906115851 20 124 0.0 0.0 0.00 0.00 0.00 99 1009.4
20260906115346 20 122 0.0 0.0 0.00 0.00 0.00 99 1009.2
20260906114845 20 122 0.0 0.0 0.00 0.00 0.00 99 1009.0
20260906114340 20 122 0.0 0.0 0.00 0.00 0.00 99 1008.9
20260906113835 20 123 0.0 0.0 0.00 0.00 0.00 99 1009.2
20260906113334 20 125 0.0 0.0 0.00 0.00 0.00 99 1009.0
20260906112830 20 122 0.0 0.0 0.00 0.00 0.00 99 1009.1
20260906112326 20 122 0.0 0.0 0.00 0.00 0.00 99 1009.0
20260906111825 20 122 0.0 0.0 0.00 0.00 0.00 99 1008.9
20260906111320 20 122 0.0 0.0 0.00 0.00 0.00 99 1008.9
20260906110815 20 120 0.0 0.0 0.00 0.00 0.00 99 1009.0
20260906110311 20 125 0.0 0.0 0.00 0.00 0.00 99 1008.8
20260906105810 20 111 0.0 1.6 0.00 0.00 0.00 99 1008.9
20260906105306 20 120 0.0 0.0 0.00 0.00 0.00 99 1008.8
20260906104801 20 120 0.0 0.0 0.00 0.00 0.00 99 1008.8
20260906104259 20 121 0.0 0.0 0.00 0.00 0.00 99 1008.8
20260906103757 20 123 0.0 0.0 0.00 0.00 0.00 99 1008.8
20260906103252 20 124 0.0 0.0 0.00 0.00 0.00 99 1008.6
20260906102748 20 123 0.0 0.0 0.00 0.00 0.00 99 1008.7
20260906102246 20 122 0.0 0.0 0.00 0.00 0.00 99 1008.5
20260906101742 20 123 0.0 0.0 0.00 0.00 0.00 99 1008.7
20260906101242 20 123 0.0 0.0 0.00 0.00 0.00 99 1008.6
20260906100737 20 126 0.0 0.0 0.00 0.00 0.00 99 1008.8
20260906100236 20 123 0.0 0.0 0.00 0.00 0.00 99 1008.4
20260906095732 20 123 0.0 0.0 0.00 0.00 0.00 99 1008.4
20260906095222 20 121 0.0 0.0 0.00 0.00 0.00 99 1008.2
20260906094720 20 123 0.0 0.0 0.00 0.00 0.00 98 1008.4
20260906094216 20 123 0.0 0.0 0.00 0.00 0.00 98 1008.4
20260906093712 20 123 0.0 0.0 0.00 0.00 0.00 98 1008.4
20260906093208 20 123 0.0 0.0 0.00 0.00 0.00 98 1008.5
20260906092702 20 123 0.0 0.0 0.00 0.00 0.00 98 1008.4
20260906092201 20 123 0.0 0.0 0.00 0.00 0.00 98 1008.0
20260906091658 20 123 0.0 0.0 0.00 0.00 0.00 98 1008.0
20260906091154 20 123 0.0 0.0 0.00 0.00 0.00 97 1007.9
20260906090650 21 123 0.0 0.0 0.00 0.00 0.00 97 1007.9
20260906090149 21 123 0.0 0.0 0.00 0.00 0.00 97 1008.2
20260906085648 21 124 0.0 0.0 0.00 0.00 0.00 97 1008.0
20260906085143 21 123 0.0 0.0 0.00 0.00 0.00 97 1007.9
20260906084637 21 123 0.0 0.0 0.00 0.00 0.00 97 1008.0
20260906084136 21 130 0.0 0.0 0.00 0.00 0.00 97 1007.9
20260906083632 21 124 0.0 0.0 0.00 0.00 0.00 96 1008.0
20260906083127 21 123 0.0 0.0 0.00 0.00 0.00 96 1008.2
20260906082623 21 123 0.0 0.0 0.00 0.00 0.00 96 1008.0
20260906082118 21 123 0.0 0.0 0.00 0.00 0.00 95 1007.9
20260906081614 21 123 0.0 0.0 0.00 0.00 0.00 95 1008.2
20260906081108 21 123 0.0 0.0 0.00 0.00 0.00 95 1008.2
20260906080605 21 123 0.0 0.0 0.00 0.00 0.00 95 1007.9
20260906075555 21 123 0.0 0.0 0.00 0.00 0.00 95 1007.9
20260906075049 21 124 0.0 0.0 0.00 0.00 0.00 95 1007.9
20260906074544 21 127 0.0 0.0 0.00 0.00 0.00 95 1008.1
20260906074043 21 126 0.0 0.0 0.00 0.00 0.00 94 1008.1
20260906073538 21 123 0.0 0.0 0.00 0.00 0.00 94 1008.2
20260906073034 21 123 0.0 0.0 0.00 0.00 0.00 94 1008.4
20260906072528 21 123 0.0 0.0 0.00 0.00 0.00 93 1008.4
20260906072025 21 123 0.0 0.0 0.00 0.00 0.00 93 1008.4
20260906071521 21 123 0.0 0.0 0.00 0.00 0.00 93 1008.2
20260906071016 21 123 0.0 0.0 0.00 0.00 0.00 93 1008.4
20260906070512 22 124 0.0 0.0 0.00 0.00 0.00 92 1008.4
20260906070008 22 123 0.0 0.0 0.00 0.00 0.00 92 1008.5
20260906065507 22 123 0.0 0.0 0.00 0.00 0.00 92 1008.4
20260906065003 22 126 0.0 0.0 0.00 0.00 0.00 92 1008.2
20260906064459 22 123 0.0 0.0 0.00 0.00 0.00 92 1008.7
20260906063954 22 126 0.0 0.0 0.00 0.00 0.00 91 1008.4
20260906063449 22 126 0.0 0.0 0.00 0.00 0.00 91 1008.5
20260906062949 22 126 0.0 0.0 0.00 0.00 0.00 91 1008.7
20260906062439 22 123 0.0 0.0 0.00 0.00 0.00 90 1008.6
20260906061934 22 123 0.0 0.0 0.00 0.00 0.00 90 1008.4
20260906061430 22 126 0.0 0.0 0.00 0.00 0.00 90 1008.5
20260906060924 22 122 0.0 0.0 0.00 0.00 0.00 90 1008.6
20260906060421 22 123 0.0 0.0 0.00 0.00 0.00 89 1008.6
20260906055917 22 127 0.0 1.6 0.00 0.00 0.00 89 1008.6
20260906055413 22 127 0.0 0.0 0.00 0.00 0.00 89 1008.6
20260906054908 22 123 0.0 0.0 0.00 0.00 0.00 89 1008.6
20260906054403 22 123 0.0 0.0 0.00 0.00 0.00 89 1008.6
20260906053859 22 123 0.0 0.0 0.00 0.00 0.00 89 1008.7
20260906053355 23 126 0.0 0.0 0.00 0.00 0.00 89 1008.6
20260906052850 23 123 0.0 0.0 0.00 0.00 0.00 88 1008.5
20260906052346 23 123 0.0 0.0 0.00 0.00 0.00 88 1008.4
20260906051843 23 125 0.0 0.0 0.00 0.00 0.00 88 1008.4
20260906051343 23 123 0.0 0.0 0.00 0.00 0.00 87 1008.4
20260906050838 23 121 0.0 0.0 0.00 0.00 0.00 87 1008.2
20260906050333 23 124 0.0 0.0 0.00 0.00 0.00 86 1008.2
20260906045832 23 127 0.0 0.0 0.00 0.00 0.00 86 1008.6
20260906045326 23 123 0.0 0.0 0.00 0.00 0.00 86 1008.4
20260906044823 23 123 0.0 0.0 0.00 0.00 0.00 85 1008.6
20260906044323 23 124 0.0 0.0 0.00 0.00 0.00 85 1008.8
20260906043819 23 123 0.0 0.0 0.00 0.00 0.00 84 1008.7
20260906043314 23 124 0.0 0.0 0.00 0.00 0.00 84 1008.8
20260906042809 24 124 0.0 0.0 0.00 0.00 0.00 83 1008.6
20260906042308 24 126 0.0 0.0 0.00 0.00 0.00 83 1008.5
20260906041803 24 124 0.0 0.0 0.00 0.00 0.00 82 1008.6
20260906041253 24 124 0.0 0.0 0.00 0.00 0.00 82 1008.5
20260906040748 24 126 0.0 0.0 0.00 0.00 0.00 82 1008.6
20260906040243 25 123 0.0 0.0 0.00 0.00 0.00 82 1008.7
20260906035739 25 123 0.0 0.0 0.00 0.00 0.00 81 1008.6
20260906035235 25 124 0.0 0.0 0.00 0.00 0.00 81 1008.7
20260906034734 25 123 0.0 0.0 0.00 0.00 0.00 81 1008.4
20260906034229 25 124 0.0 0.0 0.00 0.00 0.00 81 1008.6
20260906033725 25 125 0.0 0.0 0.00 0.00 0.00 81 1008.4
20260906033224 25 124 0.0 0.0 0.00 0.00 0.00 80 1008.5
20260906032721 25 123 0.0 0.0 0.00 0.00 0.00 80 1008.4
20260906032221 25 125 0.0 0.0 0.00 0.00 0.00 79 1008.6
20260906031716 25 125 0.0 0.0 0.00 0.00 0.00 78 1008.1
20260906031212 25 126 0.0 0.0 0.00 0.00 0.00 78 1008.4
20260906030711 25 126 0.0 0.0 0.00 0.00 0.00 77 1008.4
20260906030207 25 126 0.0 0.0 0.00 0.00 0.00 76 1008.2
20260906025706 25 130 0.0 0.0 0.00 0.00 0.00 76 1008.0
20260906025206 25 126 0.0 0.0 0.00 0.00 0.00 75 1008.0
20260906024700 26 125 0.0 0.0 0.00 0.00 0.00 75 1008.1
20260906024159 26 124 0.0 0.0 0.00 0.00 0.00 74 1007.9
20260906023655 26 124 0.0 0.0 0.00 0.00 0.00 73 1008.1
20260906023155 26 124 0.0 0.0 0.00 0.00 0.00 72 1007.9
20260906022650 26 126 0.0 0.0 0.00 0.00 0.00 72 1008.0
20260906022146 26 124 0.0 0.0 0.00 0.00 0.00 71 1007.7
20260906021642 27 126 0.0 0.0 0.00 0.00 0.00 70 1007.7
20260906021140 27 129 0.0 0.0 0.00 0.00 0.00 70 1007.8
20260906020635 27 127 0.0 0.0 0.00 0.00 0.00 69 1007.5
20260906020130 27 130 0.0 0.0 0.00 0.00 0.00 67 1007.4
20260906015624 27 123 0.0 0.0 0.00 0.00 0.00 67 1007.4
20260906015122 27 127 0.0 0.0 0.00 0.00 0.00 65 1007.4
20260906014617 28 126 0.0 0.0 0.00 0.00 0.00 65 1007.4
20260906014114 28 130 0.0 0.0 0.00 0.00 0.00 64 1007.1
20260906013609 28 132 0.0 0.0 0.00 0.00 0.00 64 1007.4
20260906013104 28 126 0.0 0.0 0.00 0.00 0.00 63 1007.1
20260906012559 28 123 0.0 0.0 0.00 0.00 0.00 62 1007.1
20260906012059 28 134 0.0 1.6 0.00 0.00 0.00 62 1007.0
20260906011555 28 134 0.0 0.0 0.00 0.00 0.00 62 1007.4
20260906011054 28 123 0.0 0.0 0.00 0.00 0.00 62 1007.0
20260906010550 28 145 1.6 1.6 0.00 0.00 0.00 62 1007.0
20260906010046 28 152 1.6 1.6 0.00 0.00 0.00 61 1006.9
20260906005545 29 129 0.0 0.0 0.00 0.00 0.00 60 1006.6
20260906005044 30 127 0.0 0.0 0.00 0.00 0.00 59 1006.8
20260906004538 30 126 0.0 0.0 0.00 0.00 0.00 58 1006.8
20260906004034 30 132 0.0 1.6 0.00 0.00 0.00 57 1006.8
20260906003528 31 148 1.6 3.2 0.00 0.00 0.00 55 1006.9
20260906003024 31 129 0.0 0.0 0.00 0.00 0.00 53 1007.0
20260906002519 32 73 1.6 1.6 0.00 0.00 0.00 51 1007.0
20260906002014 32 129 0.0 0.0 0.00 0.00 0.00 50 1006.6
20260906001509 32 131 0.0 1.6 0.00 0.00 0.00 50 1007.1
20260906001003 33 123 0.0 0.0 0.00 0.00 0.00 49 1007.0
20260906000500 33 123 0.0 1.6 0.00 0.00 0.00 48 1007.0
20260905235959 33 118 1.6 1.6 0.00 0.00 0.00 47 1006.9
20260905235453 33 113 1.6 1.6 0.00 0.00 0.00 47 1007.1
20260905234948 33 118 0.0 0.0 0.00 0.00 0.00 47 1006.9
20260905234445 33 112 0.0 0.0 0.00 0.00 0.00 46 1007.0
20260905233944 34 98 3.2 3.2 0.00 0.00 0.00 46 1006.9
20260905233440 35 115 0.0 0.0 0.00 0.00 0.00 45 1006.7
20260905232938 35 108 1.6 1.6 0.00 0.00 0.00 45 1006.8
20260905232435 35 86 0.0 1.6 0.00 0.00 0.00 45 1007.0
20260905231930 35 112 0.0 0.0 0.00 0.00 0.00 45 1006.9
20260905231426 35 77 3.2 3.2 0.00 0.00 0.00 44 1006.7
20260905230922 35 119 3.2 3.2 0.00 0.00 0.00 44 1006.6
20260905230415 35 114 1.6 1.6 0.00 0.00 0.00 44 1006.5
20260905225913 35 125 1.6 1.6 0.00 0.00 0.00 43 1006.6
20260905225408 36 95 1.6 1.6 0.00 0.00 0.00 42 1006.6
20260905224903 36 123 0.0 0.0 0.00 0.00 0.00 43 1006.5
20260905224359 35 123 1.6 1.6 0.00 0.00 0.00 43 1007.0
20260905223853 36 73 6.4 9.7 0.00 0.00 0.00 42 1006.5
20260905223351 36 123 1.6 3.2 0.00 0.00 0.00 42 1006.5
20260905222846 35 119 1.6 1.6 0.00 0.00 0.00 42 1006.6
20260905222344 36 69 8.0 9.7 0.00 0.00 0.00 40 1006.6
20260905221840 36 88 3.2 3.2 0.00 0.00 0.00 41 1006.6
20260905221337 36 86 3.2 3.2 0.00 0.00 0.00 41 1006.5
20260905220833 36 86 3.2 3.2 0.00 0.00 0.00 40 1006.7
20260905220329 36 95 4.8 4.8 0.00 0.00 0.00 40 1006.8
20260905215827 37 84 1.6 3.2 0.00 0.00 0.00 38 1006.6
20260905215323 38 95 1.6 3.2 0.00 0.00 0.00 36 1006.4
20260905214820 40 111 1.6 3.2 0.00 0.00 0.00 33 1006.4
20260905214315 40 259 3.2 4.8 0.00 0.00 0.00 31 1006.5
20260905213810 41 187 3.2 3.2 0.00 0.00 0.00 30 1006.4
20260905213307 41 223 3.2 3.2 0.00 0.00 0.00 30 1006.3
20260905212806 40 166 3.2 4.8 0.00 0.00 0.00 31 1006.6
20260905212301 40 202 3.2 4.8 0.00 0.00 0.00 32 1006.5
20260905211801 41 214 4.8 4.8 0.00 0.00 0.00 30 1006.3
20260905211256 42 164 3.2 3.2 0.00 0.00 0.00 30 1006.6
20260905210753 42 166 4.8 4.8 0.00 0.00 0.00 29 1006.6
20260905210252 41 112 0.0 0.0 0.00 0.00 0.00 30 1006.9
20260905205751 41 134 1.6 3.2 0.00 0.00 0.00 31 1006.6
20260905205246 40 137 1.6 1.6 0.00 0.00 0.00 32 1006.7
20260905204745 40 108 3.2 4.8 0.00 0.00 0.00 31 1007.0
20260905204241 40 133 4.8 4.8 0.00 0.00 0.00 33 1007.1
20260905203740 40 153 1.6 3.2 0.00 0.00 0.00 31 1007.0
20260905203236 40 145 4.8 4.8 0.00 0.00 0.00 32 1007.1
20260905202731 40 134 0.0 0.0 0.00 0.00 0.00 31 1007.2
20260905202227 41 122 0.0 0.0 0.00 0.00 0.00 30 1007.2
20260905201723 42 156 1.6 3.2 0.00 0.00 0.00 31 1007.3
20260905201222 41 137 0.0 1.6 0.00 0.00 0.00 30 1007.2
20260905200718 41 153 3.2 3.2 0.00 0.00 0.00 31 1007.3
20260905200213 42 173 3.2 3.2 0.00 0.00 0.00 29 1007.5
20260905195711 41 144 1.6 1.6 0.00 0.00 0.00 31 1007.4
20260905195206 41 128 1.6 1.6 0.00 0.00 0.00 31 1007.5
20260905194702 40 161 3.2 4.8 0.00 0.00 0.00 32 1007.6
20260905194155 40 117 1.6 1.6 0.00 0.00 0.00 32 1007.9
20260905193650 40 141 1.6 1.6 0.00 0.00 0.00 32 1007.5
20260905193144 40 76 1.6 3.2 0.00 0.00 0.00 32 1007.8
20260905192635 40 115 3.2 3.2 0.00 0.00 0.00 32 1007.9
20260905192131 40 132 0.0 0.0 0.00 0.00 0.00 33 1008.0
20260905191631 38 144 1.6 1.6 0.00 0.00 0.00 34 1008.1
20260905191129 40 131 1.6 3.2 0.00 0.00 0.00 33 1008.4
20260905190627 40 136 0.0 0.0 0.00 0.00 0.00 34 1008.1
20260905190126 38 128 0.0 0.0 0.00 0.00 0.00 35 1008.5
20260905185625 38 112 1.6 1.6 0.00 0.00 0.00 36 1008.6
20260905185120 38 129 1.6 1.6 0.00 0.00 0.00 34 1008.7
20260905184614 38 137 0.0 0.0 0.00 0.00 0.00 36 1008.5
20260905184113 38 108 1.6 1.6 0.00 0.00 0.00 37 1008.7
20260905183612 38 120 3.2 3.2 0.00 0.00 0.00 37 1009.0
20260905183108 38 124 1.6 3.2 0.00 0.00 0.00 36 1008.8
20260905182607 38 93 3.2 3.2 0.00 0.00 0.00 36 1008.9
20260905182102 37 126 0.0 1.6 0.00 0.00 0.00 37 1009.1
20260905181602 37 76 1.6 1.6 0.00 0.00 0.00 39 1009.1
20260905181101 37 91 3.2 3.2 0.00 0.00 0.00 39 1008.9
20260905180556 38 95 0.0 1.6 0.00 0.00 0.00 40 1009.1
20260905180051 37 130 0.0 1.6 0.00 0.00 0.00 42 1009.2
20260905175550 37 102 1.6 1.6 0.00 0.00 0.00 40 1009.1
20260905175046 37 108 1.6 3.2 0.00 0.00 0.00 41 1009.5
20260905174542 37 124 4.8 4.8 0.00 0.00 0.00 41 1009.4
20260905174037 37 142 0.0 0.0 0.00 0.00 0.00 41 1009.6
20260905173534 37 143 3.2 3.2 0.00 0.00 0.00 40 1009.6
20260905173029 37 127 3.2 3.2 0.00 0.00 0.00 42 1009.6
20260905172527 37 71 4.8 4.8 0.00 0.00 0.00 42 1009.6
20260905172023 37 202 4.8 4.8 0.00 0.00 0.00 41 1009.6
20260905171519 36 114 1.6 1.6 0.00 0.00 0.00 42 1009.7
20260905171015 36 114 1.6 1.6 0.00 0.00 0.00 43 1009.7
20260905170512 36 95 1.6 3.2 0.00 0.00 0.00 45 1009.8
20260905170007 36 104 4.8 4.8 0.00 0.00 0.00 45 1009.8
20260905165501 35 127 0.0 0.0 0.00 0.00 0.00 46 1009.7
20260905164956 35 74 3.2 8.0 0.00 0.00 0.00 46 1009.6
20260905164455 35 97 6.4 9.7 0.00 0.00 0.00 46 1009.9
20260905163950 35 258 4.8 4.8 0.00 0.00 0.00 48 1009.9
20260905163447 35 97 1.6 1.6 0.00 0.00 0.00 47 1010.1
20260905162942 35 150 1.6 1.6 0.00 0.00 0.00 47 1010.2
20260905162437 35 111 3.2 4.8 0.00 0.00 0.00 47 1010.4
20260905161933 35 78 4.8 4.8 0.00 0.00 0.00 47 1010.0
20260905161432 35 175 1.6 3.2 0.00 0.00 0.00 49 1010.2
20260905160930 35 143 3.2 3.2 0.00 0.00 0.00 48 1010.0
20260905160424 35 104 1.6 1.6 0.00 0.00 0.00 48 1010.2
20260905155918 35 124 0.0 0.0 0.00 0.00 0.00 51 1010.2